This demonstration page uses our WeatherBlox Daily Observations layout. Learn more.

Hourly Observations for March 30, 2016

Temp ( °F °C ) Dew Point ( °F °C ) Humidity (%) Winds ( mph kmh ) Pressure ( in mb ) Visibility ( mi km ) Precip ( " mm )
12:37 am 00:37 Cloudy 57 14 45 7 63 63 SSE 24 39 29.53 1000 10 16.0934 0 0
12:57 am 00:57 Cloudy 57 14 45 7 63 63 SSE 20 31 29.53 1000 10 16.0934 0 0
1:17 am 01:17 Cloudy 57 14 45 7 63 63 S 21 33 29.53 1000 10 16.0934 0 0
1:37 am 01:37 Cloudy 57 14 46 8 67 67 S 13 20 29.56 1001 10 16.0934 0 0
1:57 am 01:57 Cloudy 57 14 46 8 67 67 S 13 20 29.56 1001 10 16.0934 0 0
2:17 am 02:17 Cloudy 57 14 48 9 72 72 S 13 20 29.56 1001 10 16.0934 0 0
2:37 am 02:37 Cloudy 59 15 52 11 77 77 S 10 17 29.53 1000 10 16.0934 0 0
2:57 am 02:57 Cloudy 59 15 52 11 77 77 S 14 22 29.53 1000 10 16.0934 0 0
3:17 am 03:17 Cloudy 61 16 52 11 72 72 S 16 26 29.47 998 10 16.0934 0 0
3:37 am 03:37 Partly Cloudy 59 15 54 12 82 82 S 15 24 29.47 998 10 16.0934 0 0
3:57 am 03:57 Clear 59 15 54 12 82 82 S 15 24 29.47 998 10 16.0934 0 0
4:17 am 04:17 Clear 59 15 54 12 82 82 S 14 22 29.44 997 10 16.0934 0 0
4:37 am 04:37 Mostly Cloudy 59 15 54 12 82 82 S 12 19 29.44 997 10 16.0934 0 0
4:57 am 04:57 Cloudy 59 15 54 12 82 82 S 10 17 29.44 997 10 16.0934 0 0
5:17 am 05:17 Cloudy 59 15 54 12 82 82 S 12 19 29.44 997 10 16.0934 0 0
5:37 am 05:37 Cloudy 59 15 54 12 82 82 S 10 17 29.44 997 10 16.0934 0 0
5:57 am 05:57 Cloudy 59 15 54 12 82 82 S 8 13 29.44 997 10 16.0934 0 0
6:17 am 06:17 Cloudy 61 16 54 12 77 77 S 10 17 29.44 997 10 16.0934 0 0
6:37 am 06:37 Cloudy 61 16 54 12 77 77 S 10 17 29.44 997 10 16.0934 0 0
6:57 am 06:57 Cloudy 61 16 54 12 77 77 SW 8 13 29.44 997 10 16.0934 0 0
7:17 am 07:17 Mostly Cloudy 61 16 54 12 77 77 SW 9 15 29.44 997 10 16.0934 0 0
7:37 am 07:37 Partly Cloudy 59 15 54 12 82 82 SW 5 7 29.44 997 10 16.0934 0 0
7:40 am 07:40 Partly Cloudy 58 14.7 53 11.8 83 83 SW 6 9 29.44 997 10 16.0934 0 0
7:55 am 07:55 Mostly Cloudy 58 14.4 53 11.7 84 84 SW 6 9 29.47 998 10 16.0934 0 0
8:15 am 08:15 Partly Cloudy 57 13.8 53 11.5 86 86 SW 7 11 29.47 998 10 16.0934 0 0
8:35 am 08:35 Partly Cloudy 57 14 53 11.5 85 85 SSW 6 9 29.47 998 10 16.0934 0 0
8:55 am 08:55 Partly Cloudy 57 13.7 52 11.2 85 85 SSW 5 7 29.47 998 10 16.0934 0 0
9:15 am 09:15 Sunny 56 13.1 51 10.5 84 84 SW 9 15 29.47 998 10 16.0934 0 0
9:35 am 09:35 Sunny 53 11.4 46 7.9 79 79 WSW 12 19 29.47 998 10 16.0934 0 0
9:55 am 09:55 Sunny 54 12.1 46 8 76 76 WSW 10 17 29.47 998 10 16.0934 0 0
10:15 am 10:15 Sunny 55 13 47 8.4 74 74 WSW 10 17 29.5 999 10 16.0934 0 0
10:35 am 10:35 Sunny 58 14.2 48 8.7 70 70 WSW 14 22 29.47 998 10 16.0934 0 0
10:55 am 10:55 Partly Cloudy 60 15.4 48 8.7 65 65 W 14 22 29.47 998 10 16.0934 0 0
11:15 am 11:15 Partly Cloudy 58 14.7 47 8.5 67 67 W 12 19 29.5 999 10 16.0934 0 0
11:35 am 11:35 Partly Cloudy 60 15.7 48 9.1 65 65 W 15 24 29.47 998 10 16.0934 0 0
11:55 am 11:55 Sunny 62 16.6 49 9.5 63 63 W 13 20 29.47 998 10 16.0934 0 0
12:15 pm 12:15 Partly Cloudy 62 16.9 49 9.5 62 62 W 12 19 29.47 998 10 16.0934 0 0
12:35 pm 12:35 Partly Cloudy 63 17.4 49 9.7 61 61 W 12 19 29.47 998 10 16.0934 0 0
12:55 pm 12:55 Partly Cloudy 64 17.5 50 10 62 62 W 8 13 29.47 998 10 16.0934 0 0
1:15 pm 13:15 Partly Cloudy 65 18.5 49 9.7 57 57 W 12 19 29.44 997 10 16.0934 0 0
1:35 pm 13:35 Partly Cloudy 67 19.3 47 8.5 50 50 W 13 20 29.41 996 10 16.0934 0 0
1:55 pm 13:55 Mostly Cloudy 67 19.3 48 9 51 51 N 8 13 29.41 996 10 16.0934 0 0
2:15 pm 14:15 Cloudy 64 17.5 48 8.9 57 57 N 12 19 29.44 997 10 16.0934 0 0
2:35 pm 14:35 Mostly Cloudy 63 17.4 47 8.5 56 56 NNW 7 11 29.44 997 10 16.0934 0 0
2:55 pm 14:55 Mostly Cloudy 64 17.7 47 8.6 55 55 N 7 11 29.44 997 10 16.0934 0 0
3:15 pm 15:15 Mostly Cloudy 63 17.3 47 8.1 55 55 NNE 13 20 29.44 997 10 16.0934 0 0
3:35 pm 15:35 Mostly Cloudy 63 17.2 47 8.3 56 56 N 10 17 29.44 997 10 16.0934 0 0
3:55 pm 15:55 Mostly Cloudy 64 17.9 47 8.1 53 53 N 15 24 29.44 997 10 16.0934 0 0
4:15 pm 16:15 Mostly Cloudy 62 16.4 46 7.6 56 56 N 9 15 29.44 997 10 16.0934 0 0
4:35 pm 16:35 Mostly Cloudy 60 15.5 49 9.3 67 67 N 7 11 29.44 997 10 16.0934 0 0
4:55 pm 16:55 Mostly Cloudy 61 16 47 8.6 62 62 N 9 15 29.44 997 10 16.0934 0 0
5:15 pm 17:15 Cloudy 58 14.7 47 8.5 67 67 N 16 26 29.5 999 10 16.0934 0 0
5:35 pm 17:35 Mostly Cloudy 57 13.9 46 7.7 66 66 NNW 18 30 29.5 999 10 16.0934 0 0
5:55 pm 17:55 Mostly Cloudy 56 13.1 46 7.5 69 69 NNW 16 26 29.53 1000 10 16.0934 0 0
6:15 pm 18:15 Mostly Cloudy 54 12 44 6.6 70 70 N 17 28 29.53 1000 10 16.0934 0 0
6:35 pm 18:35 Mostly Cloudy 53 11.6 43 6.2 70 70 N 18 30 29.56 1001 10 16.0934 0 0
6:55 pm 18:55 Partly Cloudy 51 10.8 43 6 72 72 N 17 28 29.56 1001 10 16.0934 0 0
7:15 pm 19:15 Mostly Cloudy 50 10 42 5.7 75 75 N 15 24 29.56 1001 10 16.0934 0 0
7:35 pm 19:35 Cloudy 49 9.2 43 6.2 82 82 N 16 26 29.56 1001 10 16.0934 0 0
7:55 pm 19:55 Cloudy 47 8.6 43 6.1 84 84 N 15 24 29.62 1003 10 16.0934 0 0
8:15 pm 20:15 Cloudy 47 8.5 43 6 84 84 N 13 20 29.62 1003 10 16.0934 0 0
8:35 pm 20:35 Cloudy 46 8 42 5.7 86 86 N 15 24 29.62 1003 10 16.0934 0 0
8:55 pm 20:55 Cloudy 46 7.6 42 5.6 87 87 N 10 17 29.62 1003 10 16.0934 0 0
9:15 pm 21:15 Cloudy 46 7.5 42 5.6 88 88 N 12 19 29.62 1003 10 16.0934 0 0
9:35 pm 21:35 Cloudy 46 7.5 42 5.5 87 87 N 13 20 29.62 1003 10 16.0934 0 0
9:55 pm 21:55 Cloudy 46 7.5 42 5.4 87 87 N 8 13 29.65 1004 10 16.0934 0 0
10:15 pm 22:15 Cloudy 46 7.5 42 5.4 87 87 N 9 15 29.65 1004 10 16.0934 0 0
10:35 pm 22:35 Cloudy 46 7.5 41 5.2 86 86 N 14 22 29.65 1004 10 16.0934 0 0
10:55 pm 22:55 Cloudy 45 7.1 40 4.4 83 83 N 12 19 29.65 1004 10 16.0934 0 0
11:15 pm 23:15 Cloudy 44 6.7 39 3.8 82 82 N 12 19 29.65 1004 10 16.0934 0 0
11:35 pm 23:35 Cloudy 44 6.5 38 3.6 82 82 NNW 13 20 29.65 1004 10 16.0934 0 0
11:55 pm 23:55 Cloudy 43 6 38 3.1 82 82 NNW 15 24 29.65 1004 10 16.0934 0 0

Powered by AerisWeather